STARLINK-30198, 57290

Orbit data source: Space-Track

STARLINK-30198, 57290 is a payload satellite owned by SpaceX/Seattle (US) in LEO that was launched on Mon, 10 Jul 2023 UTC via an FALCON 9 launch vehicle from the Air Force Eastern Test Range (AFETR). Payload-class satellites include a variety of spacecraft equipped with specific instruments for various scientific and technological missions. These include communications satellites like Starlink; space stations such as the ISS; scientific satellites like the Hubble; Earth observation satellites from companies like Planet Labs, Umbra, and HawkEye 360; GPS; miniature CubeSats for education and research; and military/defense satellites.

Loading next visibility...
Identifier
57290, 2023-096A
Orbit
LEO
Country
Flag of USUS
Related business
Manufacturer
SpaceX/Seattle
Mission
Operational Commercial Communications
Bus & Motor
STARLINK V2M, Unknown motor
Mass
730 kg wet, ~700 kg dry
Launch date (UTC)
2023-07-10 (3 years ago)
Launch vehicle
FALCON 9
Launch site
Air Force Eastern Test Range (AFETR)
Object type
Payload
Rocket body
Debris
Shape & HBR
Box + 2 Pan, 17.7 m
Radar Cross Section
33.884 m², Large (>1 m²)

Expand to show TLE details & history
Last TLE update: 3 days ago

TLE from 3 days ago
0 STARLINK-30198
1 57290U 23096A   26170.93554418  .00046920  00000-0  18012-2 0  9993
2 57290  42.9897  10.0340 0008362 259.3264 100.6646 15.25712547163206
Epoch: 2026-06-19T22:27Z
TLE epoch observation values (Epoch: 2026-06-19T22:27:11.017Z)
Latitude
0.00005°
Longitude
125.08076°
Altitude
489.488 km
Speed
7.622 km/s
True Right ascension
00h 40m 08s
True Declination
0° 00' 00"
Sunlit
Object was in daylight at epoch
Visualization orbit readout
Latitude
Unknown
Longitude
Unknown
Altitude
Unknown
Speed
Unknown
Apparent Right ascension
Unknown
Apparent Declination
Unknown
Sunlit
N/A
Visualization observer readout
Local Sidereal Time
21:40:50
Azimuth
Unknown
Elevation
Unknown
Doppler factor
Unknown
Orbital elements
Apogee altitude
496.336 km
Perigee altitude
484.848 km
Semi-major axis
6,868.729 km
Eccentricity
0.00084
Inclination
42.9897°
RAAN
10.034°
Arg. of periapsis
259.3264°
True anomaly
100.75875°
Mean anomaly
100.6646°
Eccentric anomaly
100.71168°
Mean motion
3.81266 °/min
Orbital period
94.42 mins
BSTAR
0.0018012
Loading maneuver chart data...
Computing Atmospheric mass density...

Documentation

Showing up to 5 results
|